[[{"header":{"parameterUnit":"m.s-1","parameterCategory":1,"la1":30.2991,"la2":30.254,"lo1":-89.0895,"lo2":-89.0444,"dy":0.0017,"dx":0.0017,"nx":28,"ny":28,"refTime":"2025-09-03T21:00:00:Z","depth":0,"parameterNumber":2,"parameterNumberName":"U-component_of_WINDS"},"data":[0,0,0,0,0,0,0,0,0,0,0,0,0,0,0,0,0,0,0,0,0,0,0,0,0,0,0,0,0,0,0,0,0,0,0,0,0,0,0,0,0,0,0,0,0,0,0,0,0,0,0,0,0,0,0,0,0,0,1.4007,1.4006,0,1.3942,1.3941,1.394,1.3941,1.3942,1.3943,1.3944,1.3873,1.387,1.3867,0,0,0,0,0,0,0,0,0,0,0,0,0,1.4129,1.4127,1.4007,1.4006,1.4005,1.3942,1.3941,1.394,1.3941,1.3942,1.3943,1.3944,1.3873,1.387,1.3867,0,0,0,0,0,0,0,0,0,0,0,0,0,1.4071,1.4126,1.4007,1.3998,1.3997,1.3942,1.3941,1.394,1.3941,1.3942,1.3943,1.3944,1.3875,1.3871,1.3867,1.3815,0,0,1.3854,1.3852,0,0,0,0,0,0,0,0,1.4074,1.4066,1.4,1.3998,1.3997,1.3951,1.3958,1.3898,1.394,1.3962,1.3944,1.3945,1.3897,1.3891,1.3876,1.3812,1.3809,1.3854,1.3851,1.385,1.3848,0,0,0,0,0,0,0,1.4078,1.4069,1.3981,1.3999,1.3997,1.3996,1.399,1.3946,1.3923,1.396,1.396,1.3952,1.3897,1.388,1.3874,1.3808,1.3854,1.385,1.3848,1.3846,1.3699,1.3698,0,0,0,0,0,0,1.4084,1.4072,1.3983,1.3979,1.404,1.3993,1.3985,1.3964,1.3923,1.3918,1.3951,1.3953,1.3886,1.3879,1.3872,1.381,1.385,1.3846,1.3843,1.37,1.3699,1.3697,0,0,0,0,0,0,1.4087,1.4076,1.3985,1.4026,1.4014,1.399,1.3966,1.3962,1.3946,1.3917,1.3912,1.3939,1.3887,1.3878,1.383,1.3807,1.3844,1.384,1.3702,1.37,1.3698,1.3684,0,0,0,0,0,0,1.4091,1.4077,1.4058,1.4025,1.4012,1.3945,1.3964,1.396,1.3939,1.394,1.3904,1.3899,1.3887,1.3836,1.3826,1.3802,1.3837,1.3704,1.3701,1.3699,1.3687,1.3682,1.3678,0,0,0,0,0,1.4095,1.4056,1.4057,1.4046,1.3987,1.3944,1.3936,1.3925,1.3937,1.3917,1.3899,1.39,1.3812,1.3831,1.382,1.3795,1.3705,1.3702,1.3699,1.3689,1.3683,1.3678,0,0,0,0,0,0,1.4084,1.4051,1.4052,1.4001,1.3976,1.3944,1.3918,1.3919,1.3887,1.389,1.3875,1.3867,1.382,1.3802,1.3824,1.3743,1.376,1.3754,1.3756,1.3751,1.3746,1.3751,1.3834,0,0,0,0,0,1.4077,1.4045,1.4017,1.3975,1.3962,1.3943,1.3923,1.3917,1.3889,1.3878,1.3856,1.3828,1.3794,1.3771,1.3738,1.3685,1.3677,1.3662,1.3658,1.3654,1.3649,1.3621,1.3614,1.3686,1.3686,1.3686,0,0,1.4059,1.4037,1.4017,1.3972,1.3952,1.3919,1.3933,1.3897,1.3873,1.3872,1.3826,1.3809,1.3776,1.3726,1.3703,1.371,1.3628,1.365,1.3648,1.3644,1.3616,1.361,1.3604,1.3684,1.3684,1.3685,0,0,1.401,1.3991,1.3954,1.3934,1.3903,1.3891,1.3882,1.3851,1.384,1.3794,1.3793,1.3763,1.3705,1.3682,1.3663,1.3609,1.3608,1.3598,1.3575,1.3547,1.3541,1.3536,1.3517,1.351,1.3593,1.3593,1.3593,0,1.3992,1.3944,1.3935,1.3899,1.388,1.388,1.3842,1.3822,1.3782,1.3768,1.3777,1.3705,1.3683,1.3628,1.3615,1.3599,1.3589,1.3602,1.3543,1.3538,1.3533,1.3515,1.3507,1.3592,1.3592,1.3592,1.3592,0,1.3923,1.389,1.3863,1.3827,1.3804,1.3767,1.3752,1.373,1.3727,1.3713,1.3667,1.3641,1.3603,1.359,1.3585,1.3534,1.354,1.3547,1.3563,1.3525,1.3508,1.3501,1.3591,1.3591,1.3591,1.3592,0,0,1.3864,1.3825,1.3815,1.3799,1.3767,1.374,1.3704,1.3669,1.3651,1.3623,1.3592,1.3544,1.355,1.3529,1.3521,1.3497,1.3456,1.3507,1.3506,1.3498,1.34,1.3395,1.3387,1.3457,1.3455,1.3454,1.3402,0,1.3813,1.375,1.3742,1.3686,1.3655,1.3656,1.3624,1.36,1.3587,1.3559,1.3543,1.351,1.3521,1.3508,1.3484,1.3466,1.3436,1.347,1.3427,1.3426,1.3435,1.3377,1.3372,1.3324,1.3395,1.3394,1.3393,0,1.3743,1.3717,1.3658,1.3631,1.3618,1.359,1.3558,1.3531,1.3504,1.3496,1.3473,1.347,1.3432,1.3451,1.3398,1.3422,1.3404,1.3393,1.339,1.3385,1.3407,1.3371,1.3308,1.3301,1.3382,1.3383,1.3384,0,1.3707,1.3656,1.3615,1.3601,1.3568,1.3549,1.3534,1.3509,1.3489,1.3461,1.3448,1.3415,1.3397,1.3371,1.3358,1.3373,1.3307,1.3325,1.3299,1.3299,1.3284,1.3285,1.3218,1.3273,1.3273,1.3273,1.3274,0,1.365,1.3614,1.3598,1.3573,1.3533,1.3524,1.3485,1.347,1.3448,1.342,1.3418,1.3391,1.3376,1.3346,1.3336,1.3295,1.3286,1.3279,1.3276,1.3279,1.328,1.3266,1.3269,1.3271,1.3272,1.3272,1.3273,0,1.3602,1.359,1.3545,1.3519,1.3512,1.3484,1.3461,1.3436,1.3424,1.3388,1.3379,1.336,1.3325,1.3311,1.3267,1.3261,1.3213,1.3213,1.3223,1.3222,1.3197,1.32,1.3118,1.3107,1.317,1.317,1.3169,0,1.3566,1.3539,1.3511,1.3493,1.3478,1.3448,1.3429,1.3419,1.3398,1.3367,1.3346,1.3312,1.3284,1.3229,1.321,1.3178,1.3177,1.3151,1.3172,1.3175,1.3176,1.3178,1.3176,1.3147,1.3146,1.3145,1.3145,0,1.3504,1.35,1.3473,1.3444,1.3421,1.3397,1.3373,1.3358,1.3345,1.3322,1.3288,1.3266,1.3224,1.319,1.3157,1.3141,1.314,1.3139,1.3131,1.3133,1.314,1.3136,1.3212,1.314,1.3141,1.3141,1.3141,1.3142,1.3461,1.3438,1.3415,1.3385,1.3367,1.3345,1.3321,1.3307,1.3279,1.3245,1.3241,1.3204,1.3179,1.3135,1.3118,1.3088,1.3095,1.3083,1.308,1.3078,1.3076,1.3145,1.3082,1.3082,1.3082,1.3082,1.3082,0,1.3399,1.3385,1.3358,1.3326,1.3303,1.3307,1.3281,1.3261,1.323,1.3207,1.3181,1.3142,1.3109,1.3089,1.3057,1.3037,1.3036,1.3029,1.303,1.3026,1.3072,1.3082,1.303,1.303,1.303,1.303,1.303,1.303,1.3364,1.3325,1.3319,1.3271,1.3256,1.3222,1.3207,1.3188,1.317,1.3127,1.3101,1.3089,1.3067,1.3033,1.3004,1.2999,1.2987,1.2979,1.2974,1.3017,1.3023,1.3028,1.3037,1.2976,1.2976,1.293,1.293,1.293]},{"header":{"parameterUnit":"m.s-1","parameterCategory":1,"la1":30.2991,"la2":30.254,"lo1":-89.0895,"lo2":-89.0444,"dy":0.0017,"dx":0.0017,"nx":28,"ny":28,"refTime":"2025-09-03T21:00:00:Z","depth":0,"parameterNumber":3,"parameterNumberName":"V-component_of_WINDS"},"data":[0,0,0,0,0,0,0,0,0,0,0,0,0,0,0,0,0,0,0,0,0,0,0,0,0,0,0,0,0,0,0,0,0,0,0,0,0,0,0,0,0,0,0,0,0,0,0,0,0,0,0,0,0,0,0,0,0,0,-0.4441,-0.4441,0,-0.4455,-0.4456,-0.4456,-0.444,-0.4439,-0.4438,-0.4438,-0.4453,-0.4454,-0.4455,0,0,0,0,0,0,0,0,0,0,0,0,0,-0.4401,-0.4402,-0.4441,-0.4441,-0.4442,-0.4455,-0.4456,-0.4456,-0.444,-0.4439,-0.4438,-0.4438,-0.4453,-0.4454,-0.4455,0,0,0,0,0,0,0,0,0,0,0,0,0,-0.4417,-0.4402,-0.4441,-0.4435,-0.4435,-0.4455,-0.4456,-0.4456,-0.444,-0.4439,-0.4438,-0.4437,-0.4452,-0.4454,-0.4455,-0.4483,0,0,-0.446,-0.446,0,0,0,0,0,0,0,0,-0.4416,-0.4419,-0.4436,-0.4436,-0.4435,-0.4445,-0.4447,-0.4465,-0.444,-0.4438,-0.4438,-0.4437,-0.4451,-0.4453,-0.4457,-0.4483,-0.4484,-0.446,-0.4461,-0.4461,-0.4462,0,0,0,0,0,0,0,-0.4415,-0.4418,-0.4447,-0.4436,-0.4436,-0.4432,-0.4433,-0.445,-0.445,-0.4438,-0.4437,-0.4439,-0.4451,-0.4456,-0.4458,-0.4484,-0.446,-0.4461,-0.4462,-0.4462,-0.4534,-0.4535,0,0,0,0,0,0,-0.4415,-0.4417,-0.4446,-0.4447,-0.4423,-0.4434,-0.4435,-0.4443,-0.4449,-0.4449,-0.444,-0.4438,-0.4454,-0.4456,-0.4458,-0.4491,-0.4461,-0.4463,-0.4463,-0.4533,-0.4534,-0.4535,0,0,0,0,0,0,-0.4414,-0.4417,-0.4446,-0.4432,-0.4435,-0.4435,-0.4444,-0.4443,-0.4449,-0.445,-0.445,-0.4445,-0.4453,-0.4456,-0.4477,-0.4491,-0.4463,-0.4465,-0.4532,-0.4533,-0.4535,-0.4557,0,0,0,0,0,0,-0.4413,-0.4417,-0.4427,-0.4432,-0.4436,-0.4464,-0.4445,-0.4444,-0.4451,-0.4449,-0.4455,-0.4456,-0.4453,-0.4475,-0.4478,-0.4493,-0.4466,-0.4531,-0.4533,-0.4534,-0.4555,-0.4559,-0.4562,0,0,0,0,0,-0.4411,-0.4433,-0.4428,-0.4431,-0.4449,-0.4465,-0.4467,-0.4463,-0.4452,-0.4463,-0.4464,-0.4455,-0.4489,-0.4477,-0.4481,-0.4496,-0.453,-0.4532,-0.4534,-0.4553,-0.4558,-0.4562,0,0,0,0,0,0,-0.4429,-0.4433,-0.4428,-0.4451,-0.4458,-0.4462,-0.4475,-0.4468,-0.4478,-0.4476,-0.4471,-0.4473,-0.4495,-0.4497,-0.4484,-0.4523,-0.4508,-0.4511,-0.4521,-0.4525,-0.4529,-0.4528,-0.4467,0,0,0,0,0,-0.4436,-0.4449,-0.4451,-0.4472,-0.4476,-0.4475,-0.4482,-0.4478,-0.4485,-0.4487,-0.449,-0.4497,-0.4509,-0.4518,-0.4529,-0.4555,-0.4557,-0.4568,-0.4571,-0.4574,-0.4577,-0.4592,-0.4597,-0.4543,-0.4543,-0.4543,0,0,-0.445,-0.4454,-0.4462,-0.4476,-0.448,-0.4494,-0.4477,-0.4492,-0.4502,-0.449,-0.451,-0.4512,-0.452,-0.4543,-0.4554,-0.4546,-0.4593,-0.4577,-0.458,-0.4581,-0.4595,-0.46,-0.4605,-0.4545,-0.4544,-0.4544,0,0,-0.4482,-0.4486,-0.4504,-0.4509,-0.4516,-0.4516,-0.452,-0.4526,-0.4527,-0.4547,-0.4538,-0.455,-0.4571,-0.4577,-0.4583,-0.4619,-0.4611,-0.4622,-0.4642,-0.4657,-0.4661,-0.4665,-0.4678,-0.4683,-0.4625,-0.4625,-0.4625,0,-0.4498,-0.4518,-0.4514,-0.453,-0.4536,-0.4526,-0.4544,-0.455,-0.456,-0.4565,-0.4557,-0.4583,-0.4588,-0.4613,-0.4622,-0.4627,-0.4632,-0.4622,-0.4661,-0.4664,-0.4668,-0.468,-0.4685,-0.4627,-0.4627,-0.4626,-0.4626,0,-0.4538,-0.4552,-0.4566,-0.4577,-0.4585,-0.4602,-0.46,-0.4609,-0.4606,-0.4606,-0.4627,-0.4632,-0.4644,-0.465,-0.4647,-0.4676,-0.4671,-0.4661,-0.4646,-0.4674,-0.4686,-0.4691,-0.4629,-0.4628,-0.4628,-0.4627,0,0,-0.4581,-0.459,-0.4595,-0.46,-0.4608,-0.4619,-0.4636,-0.4648,-0.4656,-0.4664,-0.4679,-0.4697,-0.4689,-0.4696,-0.4693,-0.4705,-0.4734,-0.4695,-0.4695,-0.4702,-0.4767,-0.4774,-0.4779,-0.4729,-0.473,-0.4731,-0.4766,0,-0.4614,-0.4643,-0.464,-0.4668,-0.4681,-0.4672,-0.4687,-0.4694,-0.4695,-0.4707,-0.4708,-0.4722,-0.471,-0.4714,-0.4726,-0.4728,-0.4747,-0.4725,-0.4743,-0.4744,-0.4741,-0.4785,-0.4792,-0.4825,-0.4771,-0.4772,-0.4772,0,-0.4655,-0.4665,-0.4694,-0.4701,-0.4707,-0.472,-0.4731,-0.4743,-0.475,-0.4751,-0.4759,-0.4754,-0.4771,-0.4755,-0.478,-0.4765,-0.4772,-0.4775,-0.4776,-0.4777,-0.476,-0.4788,-0.4836,-0.4841,-0.4779,-0.4779,-0.4778,0,-0.4684,-0.4705,-0.4725,-0.473,-0.4738,-0.4748,-0.4752,-0.4759,-0.4766,-0.4777,-0.4782,-0.4794,-0.4801,-0.481,-0.4809,-0.4798,-0.4834,-0.4818,-0.4835,-0.4835,-0.4843,-0.4842,-0.4893,-0.4848,-0.4848,-0.4847,-0.4847,0,-0.4721,-0.4739,-0.4738,-0.4751,-0.4771,-0.4768,-0.4789,-0.4792,-0.4798,-0.4811,-0.4804,-0.4817,-0.4815,-0.4827,-0.4827,-0.4847,-0.485,-0.4851,-0.4851,-0.4852,-0.4852,-0.4856,-0.4854,-0.4849,-0.4848,-0.4848,-0.4848,0,-0.4756,-0.4756,-0.4778,-0.4784,-0.4786,-0.4801,-0.4807,-0.4819,-0.482,-0.4837,-0.4841,-0.4843,-0.4858,-0.4857,-0.4874,-0.4874,-0.4899,-0.4896,-0.4897,-0.4896,-0.4913,-0.4911,-0.4968,-0.4975,-0.4925,-0.4926,-0.4926,0,-0.4779,-0.4793,-0.4801,-0.481,-0.4814,-0.4828,-0.4836,-0.4834,-0.4843,-0.4854,-0.4865,-0.4879,-0.489,-0.4914,-0.4917,-0.493,-0.4927,-0.4946,-0.4929,-0.493,-0.4928,-0.4927,-0.4929,-0.495,-0.495,-0.4951,-0.4951,0,-0.4821,-0.482,-0.4832,-0.4845,-0.4855,-0.4864,-0.4873,-0.4881,-0.488,-0.489,-0.4905,-0.4914,-0.4931,-0.4946,-0.4959,-0.4963,-0.4957,-0.4956,-0.4961,-0.4962,-0.4962,-0.4963,-0.4906,-0.4955,-0.4955,-0.4954,-0.4954,-0.4954,-0.4851,-0.4863,-0.4871,-0.4885,-0.4891,-0.49,-0.4912,-0.4915,-0.4928,-0.4942,-0.494,-0.4957,-0.4965,-0.4982,-0.4988,-0.5001,-0.4995,-0.5001,-0.5003,-0.5005,-0.5007,-0.496,-0.5003,-0.5003,-0.5003,-0.5003,-0.5003,0,-0.4892,-0.4897,-0.491,-0.4923,-0.4934,-0.4927,-0.4937,-0.4947,-0.4962,-0.4971,-0.4982,-0.5,-0.5014,-0.5019,-0.5032,-0.5042,-0.504,-0.5046,-0.5045,-0.5047,-0.5012,-0.5006,-0.5048,-0.5048,-0.5048,-0.5048,-0.5048,-0.5048,-0.4915,-0.4935,-0.4936,-0.496,-0.4965,-0.4982,-0.4988,-0.4997,-0.5003,-0.5024,-0.5035,-0.5038,-0.5045,-0.506,-0.5073,-0.5074,-0.5079,-0.5087,-0.5086,-0.5054,-0.5049,-0.5045,-0.504,-0.5088,-0.5088,-0.512,-0.5121,-0.5121]}]]